CCA121 ZBAA-ZSQD

Flight info

Callsign CCA121
Flight time 0h 59m
Altitude 26600
Route IGMOR2G IGMOR W36 LOTGO W575 GOTSU W201 HCH W651 NOKUD
Aircraft B38M/M-SDE1FGHILORVWXY/HB1

Departure

Time 2026-05-06 15:35
Airport Beijing Capital International Airport (ZBAA)

Arrival

Time 2026-05-06 16:35
Airport Qingdao Jiaodong International Airport (ZSQD)
Time Latitude Longitude Altitude Speed Heading
2026-05-06 12:10 40.05783 116.60702 126 ft 0 kts 83°
2026-05-06 15:29 40.05783 116.60700 126 ft 2 kts 83°
2026-05-06 15:29 40.05781 116.60667 126 ft 4 kts 89°
2026-05-06 15:29 40.05782 116.60632 124 ft 4 kts 101°
2026-05-06 15:29 40.05791 116.60601 122 ft 4 kts 133°
2026-05-06 15:30 40.05804 116.60590 121 ft 0 kts 173°
2026-05-06 15:32 40.05800 116.60591 125 ft 2 kts 174°
2026-05-06 15:33 40.05772 116.60595 121 ft 6 kts 174°
2026-05-06 15:33 40.05719 116.60603 124 ft 9 kts 172°
2026-05-06 15:33 40.05665 116.60557 125 ft 11 kts 254°
2026-05-06 15:33 40.05680 116.60445 126 ft 14 kts 263°
2026-05-06 15:34 40.05650 116.60306 126 ft 18 kts 258°
2026-05-06 15:34 40.05630 116.60131 125 ft 21 kts 264°
2026-05-06 15:34 40.05632 116.59997 124 ft 8 kts 315°
2026-05-06 15:34 40.05690 116.59992 124 ft 10 kts
2026-05-06 15:35 40.05780 116.59974 124 ft 21 kts 351°
2026-05-06 15:35 40.06196 116.59908 125 ft 101 kts 353°
2026-05-06 15:35 40.07138 116.59766 151 ft 167 kts 354°
2026-05-06 15:35 40.08390 116.59614 751 ft 190 kts 355°
2026-05-06 15:36 40.09684 116.59496 2047 ft 178 kts 354°
2026-05-06 15:36 40.10842 116.59314 3511 ft 159 kts 349°
2026-05-06 15:36 40.11920 116.59153 4598 ft 159 kts 353°
2026-05-06 15:36 40.13091 116.58921 5095 ft 184 kts 336°
2026-05-06 15:37 40.14342 116.58156 5428 ft 214 kts 337°
2026-05-06 15:37 40.15902 116.57847 5860 ft 242 kts 360°
2026-05-06 15:37 40.17611 116.58406 6497 ft 262 kts 21°
2026-05-06 15:37 40.19119 116.59800 7407 ft 275 kts 39°
2026-05-06 15:38 40.20278 116.61886 8106 ft 293 kts 58°
2026-05-06 15:38 40.21092 116.64356 8958 ft 301 kts 70°
2026-05-06 15:38 40.21475 116.67117 9497 ft 314 kts 82°
2026-05-06 15:38 40.21633 116.69975 9698 ft 316 kts 84°
2026-05-06 15:39 40.21770 116.72854 9888 ft 317 kts 83°
2026-05-06 15:39 40.21908 116.75732 9987 ft 318 kts 83°
2026-05-06 15:39 40.21782 116.78623 9975 ft 320 kts 103°
2026-05-06 15:39 40.20800 116.81187 10020 ft 317 kts 130°
2026-05-06 15:40 40.19085 116.82893 10045 ft 308 kts 159°
2026-05-06 15:40 40.17048 116.83561 10132 ft 304 kts 179°
2026-05-06 15:40 40.14914 116.84066 10602 ft 325 kts 169°
2026-05-06 15:40 40.12666 116.84938 11085 ft 343 kts 166°
2026-05-06 15:41 40.10375 116.86011 11752 ft 354 kts 164°
2026-05-06 15:41 40.08083 116.87228 12647 ft 358 kts 162°
2026-05-06 15:41 40.05743 116.88559 13480 ft 365 kts 162°
2026-05-06 15:41 40.03406 116.89936 14289 ft 371 kts 162°
2026-05-06 15:42 40.01046 116.91351 15113 ft 375 kts 161°
2026-05-06 15:42 39.98670 116.92791 15952 ft 379 kts 161°
2026-05-06 15:42 39.96267 116.94257 16767 ft 384 kts 162°
2026-05-06 15:42 39.93837 116.95743 17567 ft 388 kts 162°
2026-05-06 15:43 39.91379 116.97246 18325 ft 393 kts 162°
2026-05-06 15:43 39.88895 116.98765 18996 ft 396 kts 162°
2026-05-06 15:43 39.86396 117.00291 19722 ft 398 kts 162°
2026-05-06 15:43 39.83883 117.01823 20415 ft 400 kts 163°
2026-05-06 15:44 39.81353 117.03366 21111 ft 402 kts 163°
2026-05-06 15:44 39.78812 117.04914 21807 ft 405 kts 163°
2026-05-06 15:44 39.76250 117.06473 22479 ft 408 kts 164°
2026-05-06 15:44 39.73673 117.08040 23148 ft 410 kts 164°
2026-05-06 15:45 39.71080 117.09613 23713 ft 414 kts 164°
2026-05-06 15:45 39.68460 117.11205 24206 ft 417 kts 164°
2026-05-06 15:45 39.65821 117.12804 24740 ft 419 kts 165°
2026-05-06 15:45 39.63167 117.14411 25255 ft 422 kts 165°
2026-05-06 15:46 39.60500 117.16024 25761 ft 425 kts 165°
2026-05-06 15:46 39.57813 117.17649 26232 ft 427 kts 165°
2026-05-06 15:46 39.55102 117.19288 26537 ft 433 kts 165°
2026-05-06 15:46 39.52337 117.20960 26560 ft 444 kts 165°
2026-05-06 15:47 39.49502 117.22676 26563 ft 453 kts 165°
2026-05-06 15:47 39.46630 117.24410 26539 ft 457 kts 164°
2026-05-06 15:47 39.43746 117.26145 26571 ft 457 kts 164°
2026-05-06 15:47 39.40866 117.27875 26572 ft 457 kts 165°
2026-05-06 15:48 39.37983 117.29604 26582 ft 457 kts 164°
2026-05-06 15:48 39.35099 117.31332 26594 ft 457 kts 165°
2026-05-06 15:48 39.32218 117.33057 26592 ft 457 kts 165°
2026-05-06 15:48 39.29337 117.34781 26585 ft 457 kts 165°
2026-05-06 15:49 39.26453 117.36505 26590 ft 457 kts 165°
2026-05-06 15:49 39.23569 117.38227 26561 ft 456 kts 164°
2026-05-06 15:49 39.20685 117.39947 26586 ft 456 kts 164°
2026-05-06 15:49 39.17848 117.41638 26591 ft 456 kts 164°
2026-05-06 15:50 39.14973 117.43350 26590 ft 456 kts 164°
2026-05-06 15:50 39.12142 117.45248 26583 ft 466 kts 155°
2026-05-06 15:50 39.09648 117.48028 26581 ft 484 kts 139°
2026-05-06 15:50 39.07687 117.51616 26600 ft 496 kts 128°
2026-05-06 15:51 39.05889 117.55403 26586 ft 495 kts 129°
2026-05-06 15:51 39.04088 117.59178 26590 ft 495 kts 129°
2026-05-06 15:51 39.02290 117.62962 26595 ft 495 kts 129°
2026-05-06 15:51 39.00496 117.66738 26597 ft 496 kts 129°
2026-05-06 15:52 38.98697 117.70520 26596 ft 495 kts 129°
2026-05-06 15:52 38.96874 117.74349 26605 ft 496 kts 129°
2026-05-06 15:52 38.95074 117.78126 26607 ft 495 kts 129°
2026-05-06 15:52 38.93275 117.81896 26607 ft 495 kts 129°
2026-05-06 15:53 38.91474 117.85665 26589 ft 495 kts 128°
2026-05-06 15:53 38.89671 117.89433 26611 ft 495 kts 128°
2026-05-06 15:53 38.87869 117.93196 26614 ft 495 kts 129°
2026-05-06 15:53 38.86068 117.96953 26615 ft 495 kts 129°
2026-05-06 15:54 38.84277 118.00729 26612 ft 497 kts 126°
2026-05-06 15:54 38.82958 118.04873 26604 ft 509 kts 110°
2026-05-06 15:54 38.82174 118.09318 26605 ft 512 kts 107°
2026-05-06 15:54 38.81430 118.13782 26609 ft 512 kts 107°
2026-05-06 15:55 38.80705 118.18252 26614 ft 512 kts 106°
2026-05-06 15:55 38.79991 118.22722 26612 ft 512 kts 106°
2026-05-06 15:55 38.79277 118.27193 26612 ft 512 kts 106°
2026-05-06 15:55 38.78564 118.31660 26610 ft 512 kts 106°
2026-05-06 15:56 38.77847 118.36135 26611 ft 512 kts 106°
2026-05-06 15:56 38.77129 118.40604 26599 ft 513 kts 106°
2026-05-06 15:56 38.76408 118.45080 26607 ft 514 kts 106°
2026-05-06 15:56 38.75684 118.49563 26624 ft 513 kts 107°
2026-05-06 15:57 38.74960 118.54039 26612 ft 513 kts 107°
2026-05-06 15:57 38.74233 118.58520 26603 ft 513 kts 107°
2026-05-06 15:57 38.73506 118.62993 26601 ft 513 kts 107°
2026-05-06 15:57 38.72786 118.67407 26581 ft 513 kts 107°
2026-05-06 15:58 38.72053 118.71888 26593 ft 514 kts 107°
2026-05-06 15:58 38.71318 118.76372 26596 ft 514 kts 107°
2026-05-06 15:58 38.70583 118.80848 26592 ft 514 kts 107°
2026-05-06 15:58 38.69844 118.85333 26593 ft 514 kts 107°
2026-05-06 15:59 38.69104 118.89810 26594 ft 514 kts 107°
2026-05-06 15:59 38.68364 118.94283 26590 ft 514 kts 107°
2026-05-06 15:59 38.67620 118.98764 26579 ft 515 kts 107°
2026-05-06 15:59 38.66873 119.03250 26586 ft 516 kts 107°
2026-05-06 16:00 38.66124 119.07738 26584 ft 516 kts 107°
2026-05-06 16:00 38.65374 119.12225 26587 ft 516 kts 107°
2026-05-06 16:00 38.64623 119.16707 26585 ft 516 kts 107°
2026-05-06 16:00 38.63869 119.21193 26585 ft 516 kts 107°
2026-05-06 16:01 38.63115 119.25670 26563 ft 515 kts 107°
2026-05-06 16:01 38.62358 119.30147 26574 ft 514 kts 107°
2026-05-06 16:01 38.61601 119.34616 26579 ft 514 kts 107°
2026-05-06 16:01 38.60844 119.39081 26577 ft 514 kts 107°
2026-05-06 16:02 38.60084 119.43549 26577 ft 514 kts 107°
2026-05-06 16:02 38.59323 119.48013 26577 ft 514 kts 107°
2026-05-06 16:02 38.58564 119.52477 26577 ft 515 kts 106°
2026-05-06 16:02 38.58187 119.57046 26579 ft 519 kts 95°
2026-05-06 16:03 38.58089 119.61652 26572 ft 518 kts 96°
2026-05-06 16:03 38.57970 119.66243 26578 ft 517 kts 95°
2026-05-06 16:03 38.57856 119.70837 26571 ft 517 kts 95°
2026-05-06 16:03 38.57742 119.75435 26569 ft 517 kts 95°
2026-05-06 16:04 38.57626 119.80023 26568 ft 517 kts 96°
2026-05-06 16:04 38.57509 119.84618 26566 ft 516 kts 95°
2026-05-06 16:04 38.57391 119.89188 26567 ft 514 kts 95°
2026-05-06 16:04 38.57270 119.93750 26577 ft 516 kts 96°
2026-05-06 16:05 38.57060 119.96825 26546 ft 511 kts 105°
2026-05-06 16:05 38.55965 120.02645 26551 ft 509 kts 109°
2026-05-06 16:05 38.55128 120.07043 26552 ft 509 kts 109°
2026-05-06 16:05 38.54550 120.10008 26559 ft 509 kts 109°
2026-05-06 16:06 38.53354 120.15769 26544 ft 501 kts 115°
2026-05-06 16:06 38.51876 120.19720 26538 ft 487 kts 129°
2026-05-06 16:06 38.50540 120.22049 26551 ft 478 kts 138°
2026-05-06 16:06 38.48205 120.24998 26551 ft 467 kts 149°
2026-05-06 16:07 38.45607 120.27429 26523 ft 459 kts 158°
2026-05-06 16:07 38.42740 120.29057 26538 ft 447 kts 169°
2026-05-06 16:07 38.39780 120.30267 26533 ft 446 kts 171°
2026-05-06 16:07 38.36806 120.31361 26527 ft 444 kts 172°
2026-05-06 16:08 38.33868 120.32372 26529 ft 444 kts 173°
2026-05-06 16:08 38.30845 120.33380 26529 ft 443 kts 173°
2026-05-06 16:08 38.27856 120.34354 26527 ft 443 kts 173°
2026-05-06 16:08 38.24872 120.35323 26527 ft 443 kts 173°
2026-05-06 16:09 38.21881 120.36299 26512 ft 444 kts 173°
2026-05-06 16:09 38.18925 120.37261 26518 ft 445 kts 173°
2026-05-06 16:09 38.15929 120.38234 26521 ft 445 kts 173°
2026-05-06 16:09 38.12930 120.39208 26522 ft 445 kts 173°
2026-05-06 16:10 38.09934 120.40181 26504 ft 444 kts 172°
2026-05-06 16:10 38.06936 120.41154 26508 ft 446 kts 172°
2026-05-06 16:10 38.03920 120.42129 26511 ft 447 kts 172°
2026-05-06 16:10 38.00908 120.43104 26494 ft 447 kts 172°
2026-05-06 16:11 37.97889 120.44080 26511 ft 448 kts 172°
2026-05-06 16:11 37.94867 120.45056 26513 ft 448 kts 172°
2026-05-06 16:11 37.91844 120.46032 26509 ft 448 kts 172°
2026-05-06 16:11 37.88825 120.47005 26507 ft 448 kts 172°
2026-05-06 16:12 37.85809 120.47977 26505 ft 448 kts 172°
2026-05-06 16:12 37.82788 120.48950 26507 ft 448 kts 172°
2026-05-06 16:12 37.79767 120.49922 26508 ft 448 kts 172°
2026-05-06 16:12 37.76744 120.50893 26489 ft 449 kts 173°
2026-05-06 16:13 37.73708 120.51868 26501 ft 450 kts 173°
2026-05-06 16:13 37.70676 120.52841 26504 ft 450 kts 173°
2026-05-06 16:13 37.67630 120.53713 26495 ft 443 kts 180°
2026-05-06 16:13 37.64617 120.53672 26500 ft 427 kts 196°
2026-05-06 16:14 37.61748 120.52830 26507 ft 423 kts 200°
2026-05-06 16:14 37.58914 120.51881 25857 ft 422 kts 201°
2026-05-06 16:14 37.56059 120.50854 24848 ft 428 kts 201°
2026-05-06 16:14 37.53183 120.49794 23874 ft 433 kts 201°
2026-05-06 16:15 37.50285 120.48707 22862 ft 436 kts 201°
2026-05-06 16:15 37.47388 120.47613 22094 ft 432 kts 201°
2026-05-06 16:15 37.44505 120.46521 21523 ft 423 kts 201°
2026-05-06 16:15 37.41707 120.45461 20926 ft 416 kts 201°
2026-05-06 16:16 37.38958 120.44421 20315 ft 410 kts 201°
2026-05-06 16:16 37.36247 120.43395 19741 ft 404 kts 201°
2026-05-06 16:16 37.33567 120.42383 19176 ft 399 kts 201°
2026-05-06 16:16 37.30921 120.41383 18621 ft 395 kts 201°
2026-05-06 16:17 37.28303 120.40395 18050 ft 391 kts 201°
2026-05-06 16:17 37.25713 120.39419 17468 ft 386 kts 200°
2026-05-06 16:17 37.23153 120.38453 16920 ft 381 kts 200°
2026-05-06 16:17 37.20629 120.37503 16394 ft 376 kts 200°
2026-05-06 16:18 37.18140 120.36566 15886 ft 371 kts 200°
2026-05-06 16:18 37.15686 120.35644 15400 ft 366 kts 200°
2026-05-06 16:18 37.13263 120.34733 14920 ft 361 kts 200°
2026-05-06 16:18 37.10868 120.33834 14440 ft 358 kts 200°
2026-05-06 16:19 37.08497 120.32943 13979 ft 354 kts 200°
2026-05-06 16:19 37.06149 120.32063 13500 ft 350 kts 200°
2026-05-06 16:19 37.03824 120.31190 13002 ft 347 kts 200°
2026-05-06 16:19 37.01527 120.30330 12536 ft 343 kts 200°
2026-05-06 16:20 36.99252 120.29478 12088 ft 339 kts 200°
2026-05-06 16:20 36.96986 120.28596 11669 ft 333 kts 205°
2026-05-06 16:20 36.95066 120.27091 11250 ft 323 kts 226°
2026-05-06 16:20 36.93789 120.24876 11047 ft 309 kts 245°
2026-05-06 16:21 36.93032 120.22455 10951 ft 296 kts 250°
2026-05-06 16:21 36.92349 120.20052 10891 ft 283 kts 251°
2026-05-06 16:21 36.91737 120.17789 10854 ft 267 kts 252°
2026-05-06 16:21 36.91173 120.15638 10804 ft 255 kts 252°
2026-05-06 16:22 36.90645 120.13592 10700 ft 247 kts 252°
2026-05-06 16:22 36.90125 120.11553 10551 ft 240 kts 252°
2026-05-06 16:22 36.89632 120.09605 10430 ft 241 kts 252°
2026-05-06 16:22 36.89122 120.07583 10301 ft 247 kts 252°
2026-05-06 16:23 36.88596 120.05495 10153 ft 250 kts 252°
2026-05-06 16:23 36.88082 120.03450 9969 ft 251 kts 253°
2026-05-06 16:23 36.87550 120.01337 9647 ft 252 kts 252°
2026-05-06 16:23 36.87023 119.99245 9330 ft 252 kts 252°
2026-05-06 16:24 36.86497 119.97160 9005 ft 251 kts 252°
2026-05-06 16:24 36.85975 119.95090 8706 ft 249 kts 252°
2026-05-06 16:24 36.85458 119.93039 8410 ft 247 kts 252°
2026-05-06 16:24 36.84868 119.91046 8118 ft 245 kts 240°
2026-05-06 16:25 36.83648 119.89576 7789 ft 251 kts 210°
2026-05-06 16:25 36.81937 119.89106 7502 ft 259 kts 182°
2026-05-06 16:25 36.80191 119.89730 7247 ft 268 kts 155°
2026-05-06 16:25 36.78648 119.91006 7073 ft 260 kts 159°
2026-05-06 16:26 36.77002 119.91736 6943 ft 246 kts 169°
2026-05-06 16:26 36.75393 119.92358 6825 ft 238 kts 169°
2026-05-06 16:26 36.73843 119.92965 6693 ft 230 kts 169°
2026-05-06 16:26 36.72344 119.93554 6569 ft 222 kts 169°
2026-05-06 16:27 36.70885 119.94107 6371 ft 217 kts 170°
2026-05-06 16:27 36.69438 119.94646 6102 ft 217 kts 170°
2026-05-06 16:27 36.67994 119.95187 5823 ft 216 kts 170°
2026-05-06 16:27 36.66553 119.95716 5565 ft 215 kts 171°
2026-05-06 16:28 36.65149 119.96213 5401 ft 205 kts 171°
2026-05-06 16:28 36.63802 119.96708 5133 ft 200 kts 170°
2026-05-06 16:28 36.62479 119.97204 4860 ft 196 kts 169°
2026-05-06 16:28 36.61199 119.97694 4683 ft 188 kts 169°
2026-05-06 16:29 36.59981 119.98164 4508 ft 178 kts 169°
2026-05-06 16:29 36.58815 119.98617 4280 ft 174 kts 169°
2026-05-06 16:29 36.57678 119.99062 4077 ft 168 kts 169°
2026-05-06 16:29 36.56589 119.99488 3872 ft 160 kts 170°
2026-05-06 16:30 36.55548 119.99897 3674 ft 155 kts 170°
2026-05-06 16:30 36.54866 120.00164 3552 ft 155 kts 170°
2026-05-06 16:30 36.53493 120.00705 3305 ft 155 kts 169°
2026-05-06 16:30 36.52468 120.01110 3108 ft 154 kts 169°
2026-05-06 16:31 36.51449 120.01511 2949 ft 153 kts 169°
2026-05-06 16:31 36.50432 120.01913 2744 ft 153 kts 169°
2026-05-06 16:31 36.49414 120.02315 2541 ft 154 kts 169°
2026-05-06 16:31 36.48398 120.02715 2359 ft 153 kts 169°
2026-05-06 16:32 36.47381 120.03117 2165 ft 153 kts 169°
2026-05-06 16:32 36.46389 120.03510 1950 ft 147 kts 169°
2026-05-06 16:32 36.45426 120.03889 1749 ft 144 kts 169°
2026-05-06 16:32 36.44497 120.04260 1553 ft 137 kts 170°
2026-05-06 16:33 36.43585 120.04614 1380 ft 138 kts 169°
2026-05-06 16:33 36.42673 120.04973 1188 ft 138 kts 169°
2026-05-06 16:33 36.41756 120.05329 1022 ft 138 kts 167°
2026-05-06 16:34 36.39929 120.06035 769 ft 137 kts 162°
2026-05-06 16:34 36.39028 120.06436 575 ft 137 kts 161°
2026-05-06 16:34 36.38111 120.06798 361 ft 141 kts 165°
2026-05-06 16:34 36.37154 120.07147 114 ft 144 kts 161°
2026-05-06 16:35 36.36269 120.07496 42 ft 109 kts 164°
2026-05-06 16:35 36.35799 120.07679 39 ft 36 kts 162°
2026-05-06 16:35 36.35629 120.07773 41 ft 24 kts 146°
2026-05-06 16:35 36.35507 120.07904 40 ft 16 kts 128°
2026-05-06 16:36 36.35522 120.08046 40 ft 19 kts 66°
2026-05-06 16:36 36.35636 120.08058 40 ft 20 kts 341°
2026-05-06 16:36 36.35774 120.07999 39 ft 22 kts 343°
2026-05-06 16:36 36.35865 120.07963 40 ft 14 kts 341°
2026-05-06 16:37 36.35969 120.07923 40 ft 17 kts 345°
2026-05-06 16:37 36.36051 120.07891 40 ft 7 kts 352°
2026-05-06 16:37 36.36085 120.07933 40 ft 9 kts 71°
2026-05-06 16:37 36.36109 120.08019 40 ft 12 kts 73°
2026-05-06 16:38 36.36124 120.08080 40 ft 5 kts 59°
2026-05-06 16:38 36.36161 120.08104 40 ft 8 kts 11°
2026-05-06 16:38 36.36190 120.08111 40 ft 4 kts 13°
2026-05-06 16:38 36.36205 120.08115 40 ft 2 kts 12°
2026-05-06 16:39 36.36212 120.08117 40 ft 2 kts 12°
2026-05-06 16:39 36.36216 120.08118 40 ft 0 kts 11°